| time (UTC) | temp C | wind direction | speed KPH | gust KPH | rain 1hr cm | rain 24hr cm | rain mn cm | humidity % | barometer mb |
| 20260508050003 | 10 | 96 | 1.6 | 4.8 | 0.00 | 0.00 | 0.00 | 82 | 1015.2 |
| 20260508045503 | 10 | 96 | 1.6 | 4.8 | 0.00 | 0.00 | 0.00 | 82 | 1015.2 |
| 20260508045005 | 10 | 96 | 1.6 | 4.8 | 0.00 | 0.00 | 0.00 | 82 | 1015.3 |
| 20260508044003 | 10 | 96 | 1.6 | 4.8 | 0.00 | 0.00 | 0.00 | 82 | 1015.1 |
| 20260508043503 | 10 | 96 | 1.6 | 4.8 | 0.00 | 0.00 | 0.00 | 82 | 1015.2 |
| 20260508041504 | 10 | 96 | 1.6 | 4.8 | 0.00 | 0.00 | 0.00 | 82 | 1015.1 |
| 20260508040503 | 10 | 96 | 1.6 | 4.8 | 0.00 | 0.00 | 0.00 | 82 | 1015.2 |
| 20260508040005 | 10 | 96 | 1.6 | 4.8 | 0.00 | 0.00 | 0.00 | 82 | 1015.2 |
| 20260508034505 | 10 | 96 | 1.6 | 4.8 | 0.00 | 0.00 | 0.00 | 82 | 1015.3 |
| 20260508034005 | 10 | 96 | 1.6 | 4.8 | 0.00 | 0.00 | 0.00 | 82 | 1015.2 |
| 20260508033508 | 10 | 96 | 1.6 | 4.8 | 0.00 | 0.00 | 0.00 | 82 | 1015.2 |
| 20260508033005 | 10 | 96 | 1.6 | 4.8 | 0.00 | 0.00 | 0.00 | 82 | 1015.2 |
| 20260508032505 | 10 | 96 | 1.6 | 4.8 | 0.00 | 0.00 | 0.00 | 82 | 1015.3 |
| 20260508031503 | 10 | 96 | 1.6 | 4.8 | 0.00 | 0.00 | 0.00 | 82 | 1015.3 |
| 20260508031003 | 10 | 96 | 1.6 | 4.8 | 0.00 | 0.00 | 0.00 | 82 | 1015.3 |
| 20260508030505 | 10 | 96 | 1.6 | 4.8 | 0.00 | 0.00 | 0.00 | 82 | 1015.5 |
| 20260508025503 | 10 | 96 | 1.6 | 4.8 | 0.00 | 0.00 | 0.00 | 82 | 1015.4 |
| 20260508025005 | 10 | 96 | 1.6 | 4.8 | 0.00 | 0.00 | 0.00 | 82 | 1015.5 |
| 20260508024504 | 10 | 96 | 1.6 | 4.8 | 0.00 | 0.00 | 0.00 | 82 | 1015.5 |
| 20260508023503 | 10 | 96 | 1.6 | 4.8 | 0.00 | 0.00 | 0.00 | 82 | 1015.4 |
| 20260508022503 | 10 | 96 | 1.6 | 4.8 | 0.00 | 0.00 | 0.00 | 82 | 1015.3 |
| 20260508021505 | 10 | 96 | 1.6 | 4.8 | 0.00 | 0.00 | 0.00 | 82 | 1015.3 |
| 20260508020505 | 10 | 96 | 1.6 | 4.8 | 0.00 | 0.00 | 0.00 | 82 | 1015.2 |
| 20260508014504 | 10 | 96 | 1.6 | 4.8 | 0.00 | 0.00 | 0.00 | 82 | 1015.3 |
| 20260508014003 | 10 | 96 | 1.6 | 4.8 | 0.00 | 0.00 | 0.00 | 82 | 1015.2 |
| 20260508013505 | 10 | 96 | 1.6 | 4.8 | 0.00 | 0.00 | 0.00 | 82 | 1015.3 |
| 20260508013005 | 10 | 96 | 1.6 | 4.8 | 0.00 | 0.00 | 0.00 | 82 | 1015.3 |
| 20260508012003 | 10 | 96 | 1.6 | 4.8 | 0.00 | 0.00 | 0.00 | 82 | 1015.4 |
| 20260508011505 | 10 | 96 | 1.6 | 4.8 | 0.00 | 0.00 | 0.00 | 82 | 1015.3 |
| 20260508010508 | 10 | 96 | 1.6 | 4.8 | 0.00 | 0.00 | 0.00 | 82 | 1015.5 |
| 20260508010005 | 10 | 96 | 1.6 | 4.8 | 0.00 | 0.00 | 0.00 | 82 | 1015.5 |
| 20260508004005 | 10 | 96 | 1.6 | 4.8 | 0.00 | 0.00 | 0.00 | 82 | 1015.5 |
| 20260508002505 | 10 | 96 | 1.6 | 4.8 | 0.00 | 0.00 | 0.00 | 82 | 1015.6 |
| 20260508001003 | 10 | 96 | 1.6 | 4.8 | 0.00 | 0.00 | 0.00 | 82 | 1015.4 |
| 20260508000003 | 10 | 96 | 1.6 | 4.8 | 0.00 | 0.00 | 0.00 | 82 | 1015.4 |
| 20260507235505 | 10 | 96 | 1.6 | 4.8 | 0.00 | 0.00 | 0.00 | 82 | 1015.5 |
| 20260507235003 | 10 | 96 | 1.6 | 4.8 | 0.00 | 0.00 | 0.00 | 82 | 1015.4 |
| 20260507234503 | 10 | 96 | 0.0 | 3.2 | 0.00 | 0.00 | 0.00 | 82 | 1015.4 |
| 20260507234005 | 10 | 96 | 0.0 | 3.2 | 0.00 | 0.00 | 0.00 | 82 | 1015.5 |
| 20260507233505 | 10 | 96 | 1.6 | 3.2 | 0.00 | 0.00 | 0.00 | 82 | 1015.4 |
| 20260507233003 | 10 | 96 | 1.6 | 3.2 | 0.00 | 0.00 | 0.00 | 82 | 1015.4 |
| 20260507232506 | 10 | 98 | 1.6 | 6.4 | 0.00 | 0.00 | 0.00 | 82 | 1015.5 |
| 20260507232003 | 10 | 91 | 3.2 | 6.4 | 0.00 | 0.00 | 0.00 | 82 | 1015.5 |
| 20260507231505 | 10 | 83 | 1.6 | 4.8 | 0.00 | 0.00 | 0.00 | 82 | 1015.5 |
| 20260507230503 | 10 | 81 | 1.6 | 4.8 | 0.00 | 0.00 | 0.00 | 82 | 1015.5 |
| 20260507225503 | 10 | 79 | 1.6 | 4.8 | 0.00 | 0.00 | 0.00 | 82 | 1015.5 |
| 20260507225005 | 10 | 64 | 0.0 | 4.8 | 0.00 | 0.00 | 0.00 | 82 | 1015.5 |
| 20260507224504 | 10 | 64 | 0.0 | 4.8 | 0.00 | 0.00 | 0.00 | 82 | 1015.5 |
| 20260507223005 | 10 | 64 | 1.6 | 4.8 | 0.00 | 0.00 | 0.00 | 82 | 1015.5 |
| 20260507222503 | 10 | 66 | 1.6 | 4.8 | 0.00 | 0.00 | 0.00 | 82 | 1015.4 |
| 20260507221503 | 10 | 95 | 1.6 | 4.8 | 0.00 | 0.00 | 0.00 | 82 | 1015.5 |
| 20260507221003 | 10 | 147 | 0.0 | 3.2 | 0.00 | 0.00 | 0.00 | 82 | 1015.5 |
| 20260507220505 | 10 | 147 | 0.0 | 1.6 | 0.00 | 0.00 | 0.00 | 82 | 1015.6 |
| 20260507220005 | 10 | 147 | 1.6 | 4.8 | 0.00 | 0.00 | 0.00 | 82 | 1015.5 |
| 20260507215503 | 10 | 147 | 1.6 | 4.8 | 0.00 | 0.00 | 0.00 | 82 | 1015.5 |
| 20260507214505 | 10 | 147 | 1.6 | 3.2 | 0.00 | 0.00 | 0.00 | 81 | 1015.6 |
| 20260507213505 | 11 | 147 | 1.6 | 3.2 | 0.00 | 0.00 | 0.00 | 82 | 1015.6 |
| 20260507213003 | 11 | 147 | 1.6 | 3.2 | 0.00 | 0.00 | 0.00 | 82 | 1015.6 |
| 20260507212505 | 11 | 147 | 1.6 | 3.2 | 0.00 | 0.00 | 0.00 | 82 | 1015.5 |
| 20260507212003 | 11 | 147 | 1.6 | 3.2 | 0.00 | 0.00 | 0.00 | 81 | 1015.5 |
| 20260507211503 | 11 | 147 | 0.0 | 3.2 | 0.00 | 0.00 | 0.00 | 81 | 1015.4 |
| 20260507211005 | 11 | 147 | 0.0 | 3.2 | 0.00 | 0.00 | 0.00 | 81 | 1015.4 |
| 20260507210503 | 11 | 147 | 1.6 | 3.2 | 0.00 | 0.00 | 0.00 | 81 | 1015.3 |
| 20260507210004 | 11 | 147 | 1.6 | 3.2 | 0.00 | 0.00 | 0.00 | 81 | 1015.3 |
| 20260507205505 | 11 | 147 | 1.6 | 3.2 | 0.00 | 0.00 | 0.00 | 80 | 1015.2 |
| 20260507205003 | 11 | 0 | 0.0 | 0.0 | 0.00 | 0.00 | 0.00 | 80 | 1015.3 |
| 20260507204504 | 11 | 0 | 0.0 | 0.0 | 0.00 | 0.00 | 0.00 | 80 | 1015.3 |
| 20260507202005 | 11 | 148 | 0.0 | 3.2 | 0.00 | 0.00 | 0.00 | 79 | 1015.1 |
| 20260507201505 | 11 | 147 | 1.6 | 3.2 | 0.00 | 0.00 | 0.00 | 78 | 1015.0 |
| 20260507200003 | 11 | 148 | 1.6 | 4.8 | 0.00 | 0.00 | 0.00 | 77 | 1015.0 |
| 20260507193505 | 12 | 17 | 0.0 | 1.6 | 0.00 | 0.00 | 0.00 | 76 | 1014.8 |
| 20260507193003 | 12 | 17 | 0.0 | 1.6 | 0.00 | 0.00 | 0.00 | 76 | 1014.8 |
| 20260507191505 | 12 | 17 | 0.0 | 3.2 | 0.00 | 0.00 | 0.00 | 74 | 1014.7 |
| 20260507191005 | 12 | 17 | 1.6 | 3.2 | 0.00 | 0.00 | 0.00 | 74 | 1014.7 |
| 20260507190004 | 12 | 11 | 4.8 | 8.0 | 0.00 | 0.00 | 0.00 | 73 | 1014.6 |
| 20260507185503 | 13 | 3 | 3.2 | 8.0 | 0.00 | 0.00 | 0.00 | 73 | 1014.6 |
| 20260507183503 | 13 | 219 | 0.0 | 4.8 | 0.00 | 0.00 | 0.00 | 71 | 1014.6 |
| 20260507182505 | 13 | 219 | 0.0 | 6.4 | 0.00 | 0.00 | 0.00 | 71 | 1014.5 |
| 20260507181003 | 13 | 144 | 1.6 | 11.3 | 0.00 | 0.00 | 0.00 | 70 | 1014.3 |
| 20260507180005 | 13 | 138 | 0.0 | 6.4 | 0.00 | 0.00 | 0.00 | 69 | 1014.3 |
| 20260507174503 | 13 | 145 | 3.2 | 16.1 | 0.00 | 0.00 | 0.00 | 68 | 1014.2 |
| 20260507173503 | 13 | 138 | 6.4 | 16.1 | 0.00 | 0.00 | 0.00 | 67 | 1014.3 |
| 20260507173005 | 13 | 135 | 6.4 | 16.1 | 0.00 | 0.00 | 0.00 | 67 | 1014.3 |
| 20260507172003 | 13 | 144 | 3.2 | 12.9 | 0.00 | 0.00 | 0.00 | 69 | 1014.3 |
| 20260507171505 | 13 | 142 | 3.2 | 14.5 | 0.00 | 0.00 | 0.00 | 70 | 1014.4 |
| 20260507171003 | 13 | 141 | 3.2 | 14.5 | 0.00 | 0.00 | 0.00 | 70 | 1014.3 |
| 20260507170005 | 13 | 154 | 3.2 | 14.5 | 0.00 | 0.00 | 0.00 | 70 | 1014.4 |
| 20260507165505 | 13 | 156 | 3.2 | 12.9 | 0.00 | 0.00 | 0.00 | 70 | 1014.4 |
| 20260507164505 | 13 | 147 | 3.2 | 11.3 | 0.00 | 0.00 | 0.00 | 69 | 1014.4 |
| 20260507164003 | 13 | 152 | 3.2 | 11.3 | 0.00 | 0.00 | 0.00 | 69 | 1014.4 |
| 20260507163503 | 13 | 177 | 1.6 | 11.3 | 0.00 | 0.00 | 0.00 | 69 | 1014.4 |
| 20260507163005 | 13 | 180 | 1.6 | 11.3 | 0.00 | 0.00 | 0.00 | 70 | 1014.4 |
| 20260507162003 | 14 | 151 | 4.8 | 16.1 | 0.00 | 0.00 | 0.00 | 69 | 1014.4 |
| 20260507161505 | 14 | 159 | 3.2 | 14.5 | 0.00 | 0.00 | 0.00 | 67 | 1014.4 |
| 20260507161003 | 14 | 153 | 3.2 | 12.9 | 0.00 | 0.00 | 0.00 | 68 | 1014.3 |
| 20260507160503 | 14 | 138 | 1.6 | 12.9 | 0.00 | 0.00 | 0.00 | 68 | 1014.3 |
| 20260507160005 | 14 | 143 | 1.6 | 11.3 | 0.00 | 0.00 | 0.00 | 70 | 1014.3 |
| 20260507155505 | 14 | 150 | 1.6 | 11.3 | 0.00 | 0.00 | 0.00 | 69 | 1014.3 |
| 20260507154503 | 14 | 144 | 4.8 | 14.5 | 0.00 | 0.00 | 0.00 | 67 | 1014.3 |
| 20260507154005 | 14 | 142 | 6.4 | 14.5 | 0.00 | 0.00 | 0.00 | 67 | 1014.3 |
| 20260507153504 | 14 | 141 | 4.8 | 14.5 | 0.00 | 0.00 | 0.00 | 66 | 1014.3 |
| 20260507152505 | 14 | 142 | 1.6 | 8.0 | 0.00 | 0.00 | 0.00 | 67 | 1014.4 |
| 20260507152005 | 14 | 140 | 3.2 | 11.3 | 0.00 | 0.00 | 0.00 | 67 | 1014.4 |
| 20260507151003 | 14 | 160 | 1.6 | 8.0 | 0.00 | 0.00 | 0.00 | 66 | 1014.5 |
| 20260507150505 | 14 | 180 | 1.6 | 8.0 | 0.00 | 0.00 | 0.00 | 67 | 1014.6 |
| 20260507145505 | 14 | 151 | 1.6 | 9.7 | 0.00 | 0.00 | 0.00 | 67 | 1014.5 |
| 20260507145003 | 14 | 155 | 3.2 | 12.9 | 0.00 | 0.00 | 0.00 | 67 | 1014.5 |
| 20260507144503 | 14 | 152 | 3.2 | 12.9 | 0.00 | 0.00 | 0.00 | 67 | 1014.5 |
| 20260507144005 | 14 | 153 | 1.6 | 12.9 | 0.00 | 0.00 | 0.00 | 67 | 1014.5 |
| 20260507142505 | 13 | 144 | 1.6 | 8.0 | 0.00 | 0.00 | 0.00 | 66 | 1014.8 |
| 20260507142003 | 13 | 141 | 1.6 | 6.4 | 0.00 | 0.00 | 0.00 | 67 | 1014.8 |
| 20260507141503 | 13 | 140 | 4.8 | 17.7 | 0.00 | 0.00 | 0.00 | 67 | 1014.8 |
| 20260507134505 | 14 | 144 | 6.4 | 14.5 | 0.00 | 0.00 | 0.00 | 65 | 1014.9 |
| 20260507132503 | 13 | 147 | 3.2 | 11.3 | 0.00 | 0.00 | 0.00 | 65 | 1014.9 |
| 20260507131005 | 13 | 131 | 4.8 | 14.5 | 0.00 | 0.00 | 0.00 | 62 | 1015.0 |
| 20260507125003 | 13 | 142 | 4.8 | 14.5 | 0.00 | 0.00 | 0.00 | 65 | 1015.1 |
| 20260507124005 | 13 | 149 | 6.4 | 17.7 | 0.00 | 0.00 | 0.00 | 64 | 1014.9 |
| 20260507123503 | 13 | 135 | 8.0 | 17.7 | 0.00 | 0.00 | 0.00 | 66 | 1014.9 |
| 20260507123003 | 13 | 133 | 8.0 | 17.7 | 0.00 | 0.00 | 0.00 | 64 | 1014.9 |
| 20260507122506 | 13 | 137 | 6.4 | 16.1 | 0.00 | 0.00 | 0.00 | 65 | 1014.8 |
| 20260507121503 | 14 | 131 | 8.0 | 16.1 | 0.00 | 0.00 | 0.00 | 66 | 1014.9 |
| 20260507121003 | 14 | 119 | 9.7 | 16.1 | 0.00 | 0.00 | 0.00 | 66 | 1014.8 |
| 20260507120505 | 14 | 127 | 11.3 | 17.7 | 0.00 | 0.00 | 0.00 | 65 | 1014.9 |
| 20260507120004 | 14 | 137 | 9.7 | 17.7 | 0.00 | 0.00 | 0.00 | 63 | 1015.0 |
| 20260507115503 | 15 | 137 | 8.0 | 17.7 | 0.00 | 0.00 | 0.00 | 64 | 1015.0 |
| 20260507115005 | 15 | 131 | 8.0 | 17.7 | 0.00 | 0.00 | 0.00 | 66 | 1015.1 |
| 20260507114505 | 14 | 117 | 9.7 | 19.3 | 0.00 | 0.00 | 0.00 | 66 | 1015.0 |
| 20260507113004 | 14 | 111 | 11.3 | 19.3 | 0.00 | 0.00 | 0.00 | 66 | 1015.1 |
| 20260507112505 | 14 | 109 | 9.7 | 19.3 | 0.00 | 0.00 | 0.00 | 67 | 1015.1 |
| 20260507111005 | 13 | 100 | 8.0 | 20.9 | 0.00 | 0.00 | 0.00 | 70 | 1015.2 |
| 20260507110504 | 13 | 108 | 11.3 | 20.9 | 0.00 | 0.00 | 0.00 | 72 | 1015.3 |
| 20260507104003 | 12 | 111 | 8.0 | 17.7 | 0.00 | 0.00 | 0.00 | 77 | 1015.7 |
| 20260507103503 | 12 | 109 | 6.4 | 17.7 | 0.00 | 0.00 | 0.00 | 78 | 1015.8 |
| 20260507102003 | 11 | 115 | 8.0 | 16.1 | 0.00 | 0.00 | 0.00 | 78 | 1015.9 |
| 20260507101005 | 11 | 121 | 9.7 | 19.3 | 0.00 | 0.00 | 0.00 | 81 | 1015.8 |
| 20260507100505 | 11 | 122 | 9.7 | 16.1 | 0.00 | 0.00 | 0.00 | 81 | 1015.8 |
| 20260507095003 | 10 | 93 | 8.0 | 12.9 | 0.00 | 0.00 | 0.00 | 82 | 1015.8 |
| 20260507094505 | 10 | 96 | 8.0 | 17.7 | 0.00 | 0.00 | 0.00 | 84 | 1015.8 |
| 20260507092005 | 8 | 98 | 8.0 | 14.5 | 0.00 | 0.00 | 0.00 | 84 | 1015.8 |
| 20260507091503 | 8 | 100 | 8.0 | 14.5 | 0.00 | 0.00 | 0.00 | 86 | 1015.8 |
| 20260507091005 | 8 | 94 | 6.4 | 12.9 | 0.00 | 0.00 | 0.00 | 86 | 1015.7 |
| 20260507090503 | 8 | 94 | 4.8 | 11.3 | 0.00 | 0.00 | 0.00 | 87 | 1015.7 |
| 20260507085003 | 8 | 99 | 4.8 | 11.3 | 0.00 | 0.00 | 0.00 | 89 | 1015.9 |
| 20260507084503 | 8 | 103 | 4.8 | 11.3 | 0.00 | 0.00 | 0.00 | 88 | 1015.8 |
| 20260507084005 | 8 | 99 | 4.8 | 11.3 | 0.00 | 0.00 | 0.00 | 89 | 1016.0 |
| 20260507083503 | 7 | 95 | 4.8 | 9.7 | 0.00 | 0.00 | 0.00 | 89 | 1015.9 |
| 20260507082505 | 7 | 90 | 3.2 | 9.7 | 0.00 | 0.00 | 0.00 | 89 | 1015.9 |
| 20260507082003 | 7 | 86 | 3.2 | 6.4 | 0.00 | 0.00 | 0.00 | 89 | 1015.9 |
| 20260507081503 | 7 | 88 | 3.2 | 9.7 | 0.00 | 0.00 | 0.00 | 89 | 1015.9 |
| 20260507081005 | 7 | 93 | 3.2 | 9.7 | 0.00 | 0.00 | 0.00 | 90 | 1015.9 |
| 20260507080503 | 7 | 96 | 3.2 | 6.4 | 0.00 | 0.00 | 0.00 | 90 | 1015.9 |
| 20260507080004 | 7 | 95 | 4.8 | 8.0 | 0.00 | 0.00 | 0.00 | 90 | 1015.8 |
| 20260507075505 | 7 | 89 | 3.2 | 8.0 | 0.00 | 0.00 | 0.00 | 90 | 1015.9 |
| 20260507075003 | 7 | 88 | 3.2 | 6.4 | 0.00 | 0.00 | 0.00 | 90 | 1015.9 |
| 20260507074503 | 7 | 99 | 3.2 | 9.7 | 0.00 | 0.00 | 0.00 | 90 | 1015.9 |
| 20260507073505 | 7 | 110 | 3.2 | 6.4 | 0.00 | 0.00 | 0.00 | 90 | 1015.8 |
| 20260507073004 | 7 | 108 | 3.2 | 9.7 | 0.00 | 0.00 | 0.00 | 90 | 1015.8 |
| 20260507072003 | 7 | 96 | 4.8 | 11.3 | 0.00 | 0.00 | 0.00 | 91 | 1015.7 |
| 20260507071003 | 6 | 89 | 3.2 | 6.4 | 0.00 | 0.00 | 0.00 | 91 | 1015.7 |
| 20260507070505 | 6 | 88 | 3.2 | 6.4 | 0.00 | 0.00 | 0.00 | 91 | 1015.7 |
| 20260507070010 | 6 | 94 | 3.2 | 6.4 | 0.00 | 0.00 | 0.00 | 91 | 1015.6 |
| 20260507065505 | 6 | 102 | 3.2 | 6.4 | 0.00 | 0.00 | 0.00 | 91 | 1015.5 |
| 20260507063505 | 6 | 85 | 3.2 | 6.4 | 0.00 | 0.00 | 0.00 | 91 | 1015.5 |
| 20260507063003 | 6 | 87 | 3.2 | 4.8 | 0.00 | 0.00 | 0.00 | 91 | 1015.5 |
| 20260507062003 | 6 | 74 | 1.6 | 6.4 | 0.00 | 0.00 | 0.00 | 92 | 1015.6 |
| 20260507061503 | 6 | 73 | 3.2 | 6.4 | 0.00 | 0.00 | 0.00 | 91 | 1015.5 |
| 20260507060503 | 6 | 80 | 1.6 | 6.4 | 0.00 | 0.00 | 0.00 | 91 | 1015.5 |
| 20260507060003 | 6 | 87 | 1.6 | 6.4 | 0.00 | 0.00 | 0.00 | 91 | 1015.6 |
| 20260507055505 | 6 | 90 | 3.2 | 6.4 | 0.00 | 0.00 | 0.00 | 91 | 1015.5 |
| 20260507054503 | 6 | 83 | 3.2 | 6.4 | 0.00 | 0.00 | 0.00 | 91 | 1015.5 |
| 20260507054005 | 6 | 83 | 1.6 | 4.8 | 0.00 | 0.00 | 0.00 | 91 | 1015.5 |
| 20260507053505 | 6 | 93 | 3.2 | 6.4 | 0.00 | 0.00 | 0.00 | 91 | 1015.5 |
| 20260507053004 | 6 | 92 | 3.2 | 6.4 | 0.00 | 0.00 | 0.00 | 91 | 1015.6 |
| 20260507052503 | 6 | 83 | 1.6 | 4.8 | 0.00 | 0.00 | 0.00 | 91 | 1015.6 |
| 20260507051503 | 6 | 80 | 1.6 | 6.4 | 0.00 | 0.00 | 0.00 | 91 | 1015.5 |
| 20260507051003 | 6 | 76 | 1.6 | 6.4 | 0.00 | 0.00 | 0.00 | 91 | 1015.5 |